Location: ??????
(41.3164°N, 22.6615°E)
Time: 18:00:51
(UTC+00:00)

deb Delta 139 - Visible Passes

Search period start: 11 August 2022 00:00
Search period end: 21 August 2022 00:00
Orbit: 861 x 953 km, 99.4° (Epoch: 10 August)

Date Brightness Start Highest point End Pass type
(mag) Time Alt. Az. Time Alt. Az. Time Alt. Az.
11 Aug 8.4 18:51:30 10° NNE 18:57:31 70° ESE 19:03:23 10° S visible
11 Aug 10.8 20:34:32 10° NNW 20:38:39 20° WNW 20:42:44 10° WSW visible
12 Aug 8.3 18:56:15 10° NNE 19:02:17 76° ESE 19:08:10 10° S visible
12 Aug 10.9 20:39:28 10° NNW 20:43:21 18° WNW 20:47:11 10° W visible
13 Aug 8.3 19:01:00 10° NNE 19:07:03 83° ESE 19:12:56 10° SSW visible
13 Aug 11.0 20:44:26 10° NNW 20:48:02 17° WNW 20:51:36 10° W visible
14 Aug 8.4 19:05:46 10° NNE 19:11:48 89° ESE 19:17:40 10° SSW visible
14 Aug 11.1 20:49:25 10° NNW 20:52:42 15° WNW 20:55:59 10° W visible
15 Aug 8.4 19:10:33 10° NNE 19:16:33 84° WNW 19:22:25 10° SSW visible
15 Aug 11.1 20:54:27 10° NNW 20:57:24 14° NW 21:00:19 10° W visible
16 Aug 8.5 19:15:19 10° NNE 19:21:18 78° WNW 19:27:08 10° SSW visible
16 Aug 11.1 20:59:32 10° NNW 21:02:04 13° NW 21:04:34 10° W visible
17 Aug 8.6 19:20:05 10° N 19:26:03 72° WNW 19:31:51 10° SSW visible
17 Aug 11.2 21:04:43 10° NW 21:06:44 12° NW 21:08:43 10° WNW visible
18 Aug 9.7 17:44:32 10° NE 17:48:31 18° E 17:52:26 10° SE visible
18 Aug 8.7 19:24:52 10° N 19:30:47 66° WNW 19:36:33 10° SSW visible
18 Aug 11.3 21:10:07 10° NW 21:11:24 11° NW 21:12:40 10° WNW visible
19 Aug 9.6 17:49:05 10° NE 17:53:20 20° E 17:57:30 10° SE visible
19 Aug 8.9 19:29:39 10° N 19:35:31 60° WNW 19:41:14 10° SSW visible
20 Aug 9.5 17:53:39 10° NE 17:58:08 22° E 18:02:31 10° SE visible
20 Aug 9.0 19:34:27 10° N 19:40:15 55° WNW 19:45:54 10° SW visible
